• In Uzbekistan
  • List of Countries
  • For 7 days
  • Water Temperature
  • Weather Map
  • Weather Widgets
  • user-avatar
    Login

    Hourly Weather La Rioja

    Today, 26 January, Sunday

    Time Temperature Precipitation Wind Pressure Humidity
    00:00 +32°C° 0 mm 2 mps 713 mmHg 39%
    01:00 +31°C° 0 mm 1 mps 713 mmHg 41%
    02:00 +30°C° 0 mm 1 mps 712 mmHg 42%
    03:00 +30°C° 0 mm 1 mps 712 mmHg 44%
    04:00 +29°C° 0 mm 1 mps 712 mmHg 46%
    05:00 +27°C° 0 mm 0 mps 712 mmHg 47%
    06:00 +30°C° 0 mm 1 mps 712 mmHg 44%
    07:00 +32°C° 0 mm 1 mps 712 mmHg 40%
    08:00 +33°C° 0 mm 1 mps 713 mmHg 36%
    09:00 +35°C° 0 mm 2 mps 713 mmHg 34%
    10:00 +36°C° 0 mm 2 mps 713 mmHg 32%
    11:00 +37°C° 0 mm 3 mps 713 mmHg 31%
    12:00 +38°C° 0 mm 3 mps 713 mmHg 28%
    13:00 +39°C° 0 mm 3 mps 712 mmHg 26%
    14:00 +40°C° 0 mm 3 mps 712 mmHg 23%
    15:00 +41°C° 0 mm 4 mps 711 mmHg 23%
    16:00 +41°C° 0 mm 4 mps 711 mmHg 23%
    17:00 +41°C° 0 mm 5 mps 710 mmHg 23%
    18:00 +40°C° 0 mm 4 mps 711 mmHg 26%
    19:00 +38°C° 0 mm 4 mps 711 mmHg 28%
    20:00 +37°C° 0 mm 4 mps 712 mmHg 31%
    21:00 +35°C° 0.2 mm 4 mps 713 mmHg 36%
    22:00 +34°C° 0.2 mm 4 mps 714 mmHg 40%
    23:00 +32°C° 0.2 mm 5 mps 715 mmHg 45%

    Tomorrow, 27 January, Monday

    Time Temperature Precipitation Wind Pressure Humidity
    00:00 +30°C° 0.6 mm 5 mps 715 mmHg 47%
    01:00 +29°C° 0.6 mm 6 mps 715 mmHg 50%
    02:00 +29°C° 0.6 mm 6 mps 715 mmHg 52%
    03:00 +28°C° 0 mm 5 mps 715 mmHg 54%
    04:00 +28°C° 0 mm 4 mps 716 mmHg 55%
    05:00 +28°C° 0 mm 3 mps 716 mmHg 57%
    06:00 +28°C° 0.1 mm 3 mps 716 mmHg 56%
    07:00 +28°C° 0.1 mm 3 mps 716 mmHg 54%
    08:00 +28°C° 0.1 mm 3 mps 717 mmHg 53%
    09:00 +28°C° 0.3 mm 3 mps 717 mmHg 54%
    10:00 +28°C° 0.3 mm 2 mps 717 mmHg 55%
    11:00 +28°C° 0.3 mm 2 mps 717 mmHg 56%
    12:00 +29°C° 0.4 mm 3 mps 716 mmHg 54%
    13:00 +29°C° 0.4 mm 3 mps 716 mmHg 52%
    14:00 +30°C° 0.4 mm 4 mps 715 mmHg 50%
    15:00 +30°C° 0 mm 3 mps 715 mmHg 49%
    16:00 +30°C° 0 mm 3 mps 714 mmHg 47%
    17:00 +31°C° 0 mm 3 mps 713 mmHg 46%
    18:00 +30°C° 0.1 mm 3 mps 714 mmHg 49%
    19:00 +29°C° 0.1 mm 3 mps 714 mmHg 52%
    20:00 +28°C° 0.1 mm 3 mps 714 mmHg 55%
    21:00 +28°C° 0 mm 2 mps 714 mmHg 57%
    22:00 +28°C° 0 mm 2 mps 714 mmHg 59%
    23:00 +27°C° 0 mm 2 mps 714 mmHg 61%

    Day after tomorrow, 28 January, Tuesday

    Time Temperature Precipitation Wind Pressure Humidity
    00:00 +27°C° 0 mm 2 mps 713 mmHg 61%
    01:00 +27°C° 0 mm 1 mps 713 mmHg 61%
    02:00 +26°C° 0 mm 1 mps 712 mmHg 62%
    03:00 +26°C° 0 mm 1 mps 712 mmHg 62%
    04:00 +26°C° 0 mm 1 mps 712 mmHg 63%
    05:00 +25°C° 0 mm 1 mps 711 mmHg 64%
    06:00 +24°C° 0 mm 0 mps 711 mmHg 59%
    07:00 +25°C° 0 mm 0 mps 712 mmHg 54%
    08:00 +27°C° 0 mm 0 mps 712 mmHg 49%
    09:00 +30°C° 0 mm 1 mps 711 mmHg 46%
    10:00 +31°C° 0 mm 1 mps 711 mmHg 42%
    11:00 +33°C° 0 mm 1 mps 711 mmHg 39%
    12:00 +35°C° 0 mm 2 mps 710 mmHg 36%
    13:00 +36°C° 0 mm 2 mps 709 mmHg 34%
    14:00 +37°C° 0 mm 2 mps 709 mmHg 31%
    15:00 +37°C° 0 mm 3 mps 708 mmHg 31%
    16:00 +37°C° 0 mm 4 mps 707 mmHg 31%
    17:00 +37°C° 0 mm 4 mps 707 mmHg 31%
    18:00 +35°C° 0.9 mm 5 mps 707 mmHg 38%
    19:00 +33°C° 0.9 mm 5 mps 707 mmHg 46%
    20:00 +30°C° 0.9 mm 6 mps 707 mmHg 53%
    21:00 +29°C° 0.2 mm 5 mps 707 mmHg 54%
    22:00 +29°C° 0.2 mm 4 mps 707 mmHg 55%
    23:00 +28°C° 0.2 mm 4 mps 708 mmHg 55%

    29 January, Wednesday

    Time Temperature Precipitation Wind Pressure Humidity
    00:00 +28°C° 0 mm 3 mps 707 mmHg 57%
    01:00 +27°C° 0 mm 3 mps 707 mmHg 59%
    02:00 +26°C° 0 mm 2 mps 706 mmHg 61%
    03:00 +25°C° 0 mm 4 mps 707 mmHg 65%
    04:00 +25°C° 0 mm 5 mps 708 mmHg 70%
    05:00 +23°C° 0 mm 6 mps 709 mmHg 75%
    06:00 +23°C° 0.2 mm 5 mps 710 mmHg 75%
    07:00 +23°C° 0.2 mm 5 mps 711 mmHg 75%
    08:00 +23°C° 0.2 mm 4 mps 712 mmHg 75%
    09:00 +26°C° 0 mm 4 mps 712 mmHg 68%
    10:00 +27°C° 0 mm 4 mps 712 mmHg 62%
    11:00 +29°C° 0 mm 3 mps 712 mmHg 55%
    12:00 +30°C° 0 mm 3 mps 712 mmHg 52%
    13:00 +30°C° 0 mm 3 mps 712 mmHg 50%
    14:00 +31°C° 0 mm 3 mps 711 mmHg 47%
    15:00 +31°C° 0 mm 3 mps 711 mmHg 45%
    16:00 +33°C° 0 mm 3 mps 711 mmHg 42%
    17:00 +33°C° 0 mm 3 mps 710 mmHg 40%
    18:00 +33°C° 0.1 mm 3 mps 711 mmHg 42%
    19:00 +31°C° 0.1 mm 2 mps 711 mmHg 44%
    20:00 +30°C° 0.1 mm 1 mps 712 mmHg 45%
    21:00 +29°C° 0.2 mm 1 mps 713 mmHg 49%
    22:00 +29°C° 0.2 mm 1 mps 713 mmHg 52%
    23:00 +28°C° 0.2 mm 1 mps 714 mmHg 55%

    30 January, Thursday

    Time Temperature Precipitation Wind Pressure Humidity
    00:00 +27°C° 0.8 mm 1 mps 714 mmHg 59%
    01:00 +27°C° 0.8 mm 1 mps 714 mmHg 63%
    02:00 +26°C° 0.8 mm 1 mps 713 mmHg 66%
    03:00 +25°C° 1.5 mm 1 mps 714 mmHg 68%
    04:00 +25°C° 1.5 mm 2 mps 714 mmHg 70%
    05:00 +25°C° 1.5 mm 2 mps 714 mmHg 71%
    06:00 +26°C° 0.2 mm 2 mps 715 mmHg 66%
    07:00 +26°C° 0.2 mm 2 mps 715 mmHg 61%
    08:00 +27°C° 0.2 mm 2 mps 715 mmHg 57%
    09:00 +28°C° 0 mm 2 mps 716 mmHg 52%
    10:00 +30°C° 0 mm 2 mps 716 mmHg 48%
    11:00 +31°C° 0 mm 2 mps 716 mmHg 44%
    12:00 +33°C° 0.3 mm 3 mps 715 mmHg 40%
    13:00 +34°C° 0.3 mm 3 mps 714 mmHg 36%
    14:00 +35°C° 0.3 mm 3 mps 714 mmHg 33%
    15:00 +35°C° 0 mm 4 mps 713 mmHg 32%
    16:00 +35°C° 0 mm 4 mps 712 mmHg 30%
    17:00 +36°C° 0 mm 4 mps 712 mmHg 29%
    18:00 +34°C° 0 mm 4 mps 712 mmHg 33%
    19:00 +33°C° 0 mm 4 mps 712 mmHg 36%
    20:00 +32°C° 0 mm 4 mps 712 mmHg 40%
    21:00 +30°C° 0 mm 4 mps 712 mmHg 42%
    22:00 +29°C° 0 mm 3 mps 713 mmHg 44%
    23:00 +28°C° 0 mm 2 mps 713 mmHg 46%

    31 January, Friday

    Time Temperature Precipitation Wind Pressure Humidity
    00:00 +28°C° 0 mm 2 mps 713 mmHg 47%
    01:00 +27°C° 0 mm 1 mps 713 mmHg 48%
    02:00 +27°C° 0 mm 1 mps 713 mmHg 49%
    03:00 +26°C° 0 mm 1 mps 713 mmHg 49%
    04:00 +26°C° 0 mm 2 mps 713 mmHg 50%
    05:00 +26°C° 0 mm 2 mps 713 mmHg 51%
    06:00 +27°C° 0 mm 2 mps 713 mmHg 48%
    07:00 +28°C° 0 mm 2 mps 714 mmHg 45%
    08:00 +29°C° 0 mm 3 mps 714 mmHg 42%
    09:00 +30°C° 0 mm 3 mps 714 mmHg 40%
    10:00 +31°C° 0 mm 3 mps 715 mmHg 37%
    11:00 +34°C° 0 mm 3 mps 715 mmHg 35%
    12:00 +35°C° 0 mm 3 mps 714 mmHg 33%
    13:00 +36°C° 0 mm 2 mps 713 mmHg 31%
    14:00 +37°C° 0 mm 2 mps 713 mmHg 29%
    15:00 +37°C° 0 mm 2 mps 712 mmHg 27%
    16:00 +37°C° 0 mm 2 mps 712 mmHg 26%
    17:00 +38°C° 0 mm 2 mps 711 mmHg 25%
    18:00 +36°C° 0 mm 2 mps 712 mmHg 28%
    19:00 +35°C° 0 mm 3 mps 712 mmHg 32%
    20:00 +34°C° 0 mm 3 mps 712 mmHg 36%
    21:00 +33°C° 0 mm 3 mps 713 mmHg 39%
    22:00 +32°C° 0 mm 2 mps 713 mmHg 41%
    23:00 +31°C° 0 mm 2 mps 714 mmHg 44%
    Show more